Temperature
18 18 18 18 18 18 17 17 17 17 17 17 17 17 17 17 17 17 17 17 17 16 16 16 16 16 15 15 15 15 15 15 15 15 15 15 15 15 15 14 14 14 14
18 18 18 18 18 18 17 17 17 17 17 17 17 17 17 17 17 17 17 17 17 17 16 16 16 16 16 15 15 15 15 14 14 15 15 15 15 15 14 14 14 14 14
19 18 18 18 18 18 18 17 17 17 17 17 17 17 17 17 17 17 17 17 17 16 16 16 16 16 16 15 15 15 15 15 14 14 15 15 15 15 14 14 14 14 14
19 18 18 18 18 18 18 17 17 17 17 17 17 17 16 16 16 16 16 16 16 16 16 16 16 16 16 15 15 15 15 15 14 14 15 15 15 15 14 15 15 15 15
18 18 18 18 18 18 17 17 17 17 17 17 16 16 16 16 16 16 16 16 15 15 15 15 15 15 15 15 15 15 14 14 14 14 14 14 15 15 14 14 14 14 14
18 18 18 17 17 17 17 17 17 16 16 16 16 16 16 15 15 15 15 15 15 15 15 15 15 14 14 14 14 14 14 13 13 13 13 13 14 14 14 14 13 13 14
17 17 16 16 16 16 16 16 16 16 15 15 15 15 14 14 14 14 14 14 14 14 14 14 14 14 13 13 13 13 13 13 13 13 13 13 13 13 13 13 13 13 13
16 15 15 15 15 15 15 15 15 15 14 14 14 14 14 13 13 13 13 13 13 13 13 12 12 12 12 12 12 12 12 12 12 12 12 12 12 12 12 12 12 12 12
14 14 14 14 14 14 14 14 13 13 13 13 13 13 13 12 12 12 12 12 12 12 12 12 12 11 11 11 11 11 11 12 11 11 11 11 11 11 11 11 11 11 11
13 13 13 13 13 13 13 13 13 12 12 12 12 12 12 12 11 12 12 11 11 11 11 11 10 10 10 10 10 10 10 10 10 11 11 11 11 11 11 11 11 10 10
12 12 12 12 12 12 12 12 12 12 11 11 11 11 11 11 11 11 10 10 10 10 10 9 9 9 9 9 9 9 9 9 9 9 9 10 10 10 10 10 10 10 9
12 12 11 11 11 11 11 11 11 11 11 11 11 10 10 10 10 10 9 9 9 8 8 8 8 8 8 8 8 8 8 7 7 7 8 8 8 9 9 9 9 9 9
11 11 11 11 11 11 11 11 11 11 11 10 10 10 10 9 9 9 8 8 8 8 7 7 7 7 7 7 7 6 6 6 6 6 6 6 7 7 7 8 8 8 8
11 11 11 11 11 11 11 11 10 10 10 10 10 9 9 8 8 8 7 7 7 7 6 6 6 6 6 6 5 5 5 5 5 5 5 5 6 6 6 7 7 7 7
11 10 10 10 10 10 10 10 10 10 9 9 9 8 8 8 7 6 6 6 6 5 5 5 5 5 5 5 5 5 5 5 5 5 5 5 5 5 6 6 6 6 6
10 10 10 10 10 10 9 9 9 9 8 8 8 7 7 6 6 5 5 5 5 4 4 4 4 4 4 4 4 4 4 4 4 4 4 4 4 4 5 5 5 6 6
10 9 9 9 9 9 9 9 8 8 8 7 7 6 6 5 5 5 4 4 4 4 3 3 3 3 3 3 3 3 3 3 3 3 3 4 4 4 4 4 5 5 5
9 9 9 9 8 8 8 8 7 7 7 6 5 5 5 4 4 4 4 3 3 3 3 2 2 2 2 2 2 2 2 2 3 3 3 3 3 3 3 4 4 4 5
9 8 8 8 8 7 7 7 6 6 5 5 4 4 4 4 3 3 3 2 2 2 2 2 1 1 1 1 2 2 2 2 2 2 2 3 3 3 3 3 4 4 4
8 8 8 7 7 7 6 6 5 5 4 4 3 3 2 2 2 2 2 1 1 1 1 1 1 1 1 1 1 1 1 1 2 2 2 2 2 2 3 3 3 3 4
7 7 7 6 6 6 5 4 4 3 3 2 2 2 1 1 1 1 1 0 0 0 -0 0 0 0 0 1 1 1 1 1 1 1 2 2 2 2 2 3 3 3 3
6 6 6 5 5 4 4 3 3 2 2 2 1 1 1 1 0 0 -0 -0 -0 -0 -1 -1 -0 -0 -0 0 0 0 1 1 1 1 1 2 2 2 2 2 3 3 3
6 5 5 4 4 3 3 2 2 2 1 1 1 1 0 0 -0 -0 -0 -1 -1 -1 -1 -1 -1 -0 -0 -0 -0 0 0 0 1 1 1 1 2 2 2 2 3 3 3
5 4 4 3 3 2 2 2 1 1 1 0 0 0 -0 -0 -0 -1 -1 -1 -1 -1 -1 -1 -1 -1 -0 -0 -0 0 0 1 1 1 1 1 2 2 2 2 3 3 3
4 3 3 2 2 2 1 1 1 1 0 0 -0 -0 -0 -1 -1 -1 -1 -1 -1 -1 -1 -1 -1 -0 -0 -0 0 0 1 1 1 1 2 2 2 2 2 2 3 3 3
3 2 2 2 1 1 1 1 0 0 0 -0 -0 -1 -1 -1 -1 -1 -1 -1 -1 -1 -1 -1 -1 -1 -0 -0 0 0 1 1 1 2 2 2 2 2 2 2 3 3 3
Wind_Speed
11 10 9 8 8 7 7 7 7 6 7 8 9 9 9 8 7 7 6 6 6 6 5 5 6 4 3 3 2 2 3 4 5 5 3 3 3 4 5 11 14 14 16
11 10 9 7 7 7 7 7 6 6 6 8 8 9 9 9 8 9 9 8 7 7 7 7 7 5 6 5 4 4 4 4 5 6 4 3 5 6 5 6 9 13 15
10 9 7 6 6 6 6 5 5 4 5 5 7 8 8 8 8 8 8 8 8 8 7 7 8 7 7 6 6 6 5 5 5 5 6 4 5 5 5 6 6 7 12
8 7 6 5 4 3 2 2 2 3 3 4 5 6 6 6 6 7 7 7 7 8 7 8 8 8 9 8 7 7 6 6 5 6 7 6 6 6 4 6 7 6 7
7 6 5 3 3 3 2 2 2 2 3 3 3 3 4 4 4 4 5 6 6 7 7 8 8 9 10 9 8 7 7 7 6 7 8 6 7 5 6 5 7 8 7
8 6 4 4 3 3 2 2 2 1 0 1 2 3 3 2 3 3 4 4 4 6 7 7 8 8 9 10 11 10 9 9 9 8 8 9 11 8 7 7 7 7 8
9 8 7 6 5 5 5 5 4 3 3 2 2 2 2 1 1 1 2 2 2 3 4 4 5 4 3 4 6 7 8 9 10 8 9 10 10 8 7 8 8 9 10
10 9 8 8 7 6 6 5 4 3 4 3 3 3 3 2 3 2 1 1 1 2 3 3 2 3 5 4 4 5 6 7 9 8 8 10 10 9 9 11 11 11 9
10 9 7 7 7 7 6 5 4 4 4 3 3 4 4 3 4 4 3 2 3 3 4 4 3 3 6 7 5 6 8 8 10 12 13 14 16 17 13 8 8 9 12
8 7 6 7 7 6 5 4 4 4 4 4 5 4 4 4 6 6 6 4 4 3 3 4 5 5 7 7 5 5 9 10 10 12 12 13 12 13 16 13 11 12 10
6 6 6 6 5 5 4 4 4 5 5 5 6 5 5 5 7 9 8 4 3 2 3 3 3 7 9 10 9 7 11 12 10 10 10 10 9 9 9 10 11 12 13
7 6 5 4 4 4 4 3 4 4 5 4 4 4 4 4 5 6 7 6 3 2 2 3 5 11 13 13 10 11 15 13 7 7 8 9 9 9 9 10 10 11 13
7 6 5 5 4 4 3 3 3 3 3 3 3 3 2 3 4 6 7 7 6 3 3 7 10 13 13 10 11 14 12 7 6 7 8 9 8 9 9 9 10 10 11
7 5 5 5 5 5 4 3 3 2 3 3 3 2 2 3 3 4 4 5 6 5 5 8 11 12 10 10 10 9 6 6 7 7 8 9 8 8 9 8 9 9 9
6 6 5 5 5 5 4 3 3 2 3 4 2 2 2 2 3 4 3 4 4 5 5 4 4 5 5 6 6 6 6 6 7 7 8 9 9 9 9 8 8 8 9
5 5 4 4 4 4 4 5 8 7 9 9 8 5 3 3 5 7 8 9 10 9 4 4 5 5 6 7 7 7 7 7 7 8 8 9 9 10 10 9 9 9 11
5 4 3 4 4 4 4 4 4 6 10 11 10 9 7 8 10 10 10 10 10 8 4 5 5 6 7 7 7 8 8 9 8 9 9 10 10 10 10 10 10 10 11
5 5 5 4 4 4 5 4 4 4 4 4 6 10 10 11 11 11 10 8 6 6 4 6 7 7 7 8 8 8 9 9 9 10 10 10 10 11 11 11 10 11 11
5 4 4 4 5 5 5 5 5 5 4 3 4 6 10 10 9 10 9 5 5 6 6 7 7 8 8 8 8 9 10 10 10 10 10 10 10 11 12 11 11 14 13
5 8 7 5 5 6 5 5 5 5 4 4 4 4 6 6 6 7 6 6 6 6 7 8 8 9 9 9 9 9 10 10 11 10 10 11 11 11 12 14 12 12 12
5 6 10 7 6 5 5 5 4 4 4 4 4 5 7 5 5 6 6 6 7 7 8 9 9 9 9 9 9 10 11 11 10 10 11 11 11 12 12 12 13 13 13
5 6 5 5 4 4 4 4 4 4 4 4 4 5 8 5 5 6 6 7 7 7 8 8 9 9 9 9 10 10 11 11 11 11 12 12 12 13 13 13 13 13 12
6 6 5 4 4 5 5 4 3 3 4 4 4 5 5 5 5 6 7 7 8 8 8 8 9 9 8 10 10 10 11 11 11 13 13 13 13 13 13 13 15 15 14
5 5 4 4 4 4 3 3 3 4 4 4 4 5 5 5 6 7 7 8 8 8 9 9 9 12 14 12 12 13 13 15 16 13 15 14 14 13 13 13 14 15 14
5 4 4 3 3 3 3 3 4 4 4 4 5 5 5 6 6 7 8 8 9 10 11 12 11 12 15 17 16 17 20 21 20 17 13 12 14 14 14 14 13 14 13
4 4 3 3 3 3 3 3 4 4 4 5 5 5 5 6 6 7 8 8 10 10 10 11 14 18 19 17 19 23 22 21 21 20 14 11 12 12 13 12 14 13 13
Wind_Direction
195 198 200 201 203 203 205 213 213 211 201 194 194 194 197 201 199 197 210 209 212 226 230 223 233 232 235 239 216 196 189 174 214 263 260 265 249 243 235 230 237 236 237
196 197 201 203 202 207 216 219 213 213 207 198 194 196 204 207 205 204 214 215 214 224 230 230 236 235 234 234 229 230 224 207 208 250 267 261 251 244 239 239 242 242 241
191 192 197 200 200 207 216 220 213 213 214 205 195 202 210 212 211 214 216 218 220 223 223 225 233 229 237 236 232 235 237 235 215 233 259 252 255 250 251 256 250 249 249
174 176 184 194 189 192 199 202 213 209 207 202 200 204 210 213 213 218 218 221 228 232 229 228 228 223 230 232 235 235 234 239 237 241 257 261 259 256 244 253 266 255 253
149 155 169 161 155 152 147 185 203 199 202 200 198 201 209 210 218 220 229 229 231 242 245 242 240 235 233 232 238 234 230 237 240 244 256 263 262 256 248 244 257 264 262
111 113 114 110 108 95 87 80 74 73 142 148 193 190 176 191 181 197 219 241 242 249 253 254 255 252 254 251 250 247 235 236 242 244 251 253 259 253 252 249 252 260 269
96 95 92 89 87 87 88 75 68 64 77 89 99 99 125 138 110 6 286 253 264 271 275 283 287 302 314 302 289 283 270 261 250 248 253 256 261 257 253 256 249 246 253
85 82 82 84 84 77 73 69 64 65 70 69 71 77 75 52 65 61 10 354 350 332 330 337 331 360 11 1 337 320 301 291 278 267 259 264 266 263 252 254 258 260 258
87 84 81 83 83 77 72 65 58 61 54 53 67 74 69 27 39 65 84 69 46 19 12 23 45 53 18 14 358 325 310 300 294 286 279 273 272 269 264 266 261 259 266
87 88 86 86 85 79 70 62 54 61 62 63 60 60 71 59 53 63 75 71 56 33 21 22 32 16 353 352 339 316 303 299 303 304 297 286 274 268 262 251 250 256 262
89 84 79 81 89 86 69 63 71 70 64 63 67 59 63 73 69 70 78 79 74 38 4 344 334 341 336 329 319 290 280 289 294 291 290 288 283 273 264 253 246 247 255
77 71 64 58 64 77 75 65 71 84 80 73 74 63 52 59 68 70 71 64 61 52 334 313 309 318 317 313 307 291 294 299 290 288 289 288 286 284 277 267 255 251 252
65 54 44 41 38 43 64 68 64 71 82 77 77 72 41 30 32 41 40 29 20 9 313 309 311 312 313 309 300 301 306 301 296 294 291 288 285 285 287 283 276 266 263
62 46 38 38 26 26 35 52 64 63 69 70 71 67 33 20 11 5 0 357 353 344 325 314 311 308 305 298 301 304 299 289 289 287 289 289 289 287 286 284 284 284 282
55 43 36 35 33 29 30 42 62 65 111 110 101 97 70 24 335 338 347 336 327 310 314 314 317 317 317 312 307 303 302 305 303 298 297 297 295 292 290 285 277 277 276
49 33 32 31 31 38 42 43 49 67 74 83 89 94 75 41 -0 1 354 343 336 333 341 325 315 312 312 312 312 311 308 306 302 300 299 297 296 296 295 290 280 274 274
56 35 30 28 33 35 46 61 52 42 53 60 62 61 48 20 11 3 356 348 345 351 351 323 316 314 314 314 313 311 310 305 302 300 298 296 296 296 294 291 286 278 274
46 36 38 40 44 47 53 59 67 63 41 24 29 36 30 18 10 8 4 6 355 354 337 325 319 316 313 311 309 307 306 307 305 304 301 299 299 298 297 295 291 283 280
42 35 47 55 56 58 60 61 60 57 50 29 11 7 9 4 6 9 10 7 343 334 328 322 317 314 310 307 305 304 303 303 302 301 300 299 300 299 296 294 294 293 286
39 53 66 68 63 60 57 56 52 48 40 28 17 359 352 2 0 353 353 344 335 327 322 318 316 312 311 308 307 306 305 304 303 302 302 302 300 298 297 296 295 294 290
46 55 70 71 65 62 59 56 51 45 31 15 358 356 7 1 347 341 338 332 327 323 321 319 315 314 312 310 309 309 309 307 306 306 304 302 301 299 298 296 293 291 290
68 71 69 70 63 55 53 50 44 34 16 5 347 345 352 353 339 333 328 325 323 319 316 314 313 311 311 311 311 311 310 309 310 311 308 304 301 299 297 296 295 293 291
74 75 68 60 58 50 46 32 22 12 360 350 341 336 336 335 330 325 323 322 322 321 319 316 314 313 313 313 312 310 310 312 313 310 306 302 299 297 296 294 294 296 296
73 73 67 56 47 39 29 14 4 359 353 343 335 330 328 328 326 325 325 323 323 321 322 322 318 318 320 323 320 317 315 314 313 307 300 296 294 293 293 291 292 293 296
74 71 62 51 37 25 15 4 355 349 344 338 334 331 329 330 330 329 328 328 328 327 327 328 327 327 325 323 323 323 320 315 309 308 303 295 290 289 290 291 293 295 295
75 68 53 38 30 19 9 360 351 347 342 339 337 335 336 338 337 335 334 334 334 331 329 328 329 329 326 326 326 324 320 317 314 311 306 296 291 290 294 294 296 297 298
Height
1521 1524 1527 1530 1532 1535 1537 1538 1540 1541 1542 1543 1544 1545 1546 1547 1548 1548 1549 1549 1549 1550 1550 1550 1551 1551 1552 1552 1552 1552 1552 1552 1551 1551 1551 1551 1551 1551 1550 1550 1549 1549 1548
1519 1522 1525 1528 1530 1532 1534 1536 1537 1539 1540 1541 1542 1543 1544 1545 1545 1546 1546 1547 1547 1547 1548 1548 1548 1549 1549 1549 1549 1549 1549 1549 1548 1547 1547 1547 1547 1547 1546 1546 1545 1544 1543
1518 1520 1523 1526 1528 1529 1531 1533 1535 1536 1537 1538 1539 1540 1541 1542 1542 1542 1543 1543 1544 1544 1545 1545 1545 1545 1545 1545 1545 1545 1545 1545 1544 1543 1541 1542 1542 1542 1541 1540 1539 1539 1538
1516 1518 1521 1523 1525 1526 1529 1530 1531 1532 1533 1534 1535 1536 1536 1537 1538 1538 1539 1539 1539 1540 1541 1541 1541 1541 1541 1541 1541 1540 1540 1540 1539 1538 1537 1536 1536 1536 1535 1534 1533 1533 1532
1513 1515 1518 1520 1522 1523 1525 1526 1526 1528 1529 1530 1530 1531 1531 1532 1532 1533 1533 1534 1534 1535 1535 1535 1535 1535 1535 1536 1535 1535 1535 1534 1533 1532 1531 1530 1529 1529 1529 1528 1527 1526 1524
1509 1512 1516 1518 1519 1520 1521 1522 1523 1523 1524 1524 1525 1525 1525 1526 1526 1527 1528 1529 1529 1529 1529 1529 1529 1529 1529 1529 1528 1528 1528 1527 1526 1525 1523 1522 1521 1522 1522 1521 1520 1518 1515
1509 1511 1513 1515 1516 1517 1518 1518 1519 1519 1519 1519 1520 1520 1520 1521 1522 1523 1523 1523 1523 1523 1522 1522 1522 1522 1522 1521 1521 1521 1520 1520 1519 1518 1516 1514 1514 1514 1514 1512 1511 1509 1507
1508 1510 1512 1514 1515 1516 1516 1516 1517 1517 1517 1517 1517 1517 1517 1517 1518 1518 1519 1518 1518 1518 1517 1516 1515 1514 1514 1514 1513 1512 1512 1511 1511 1509 1508 1506 1505 1505 1504 1503 1501 1499 1497
1510 1512 1513 1514 1515 1515 1515 1515 1515 1515 1515 1515 1515 1515 1515 1515 1515 1514 1514 1514 1514 1513 1513 1512 1510 1509 1508 1507 1506 1503 1502 1502 1501 1499 1498 1496 1495 1495 1495 1493 1491 1489 1484
1512 1513 1514 1515 1515 1515 1515 1514 1514 1514 1514 1514 1514 1514 1513 1512 1512 1511 1511 1510 1510 1509 1508 1507 1505 1503 1502 1500 1498 1495 1493 1491 1490 1487 1486 1485 1484 1483 1483 1482 1480 1478 1474
1513 1514 1515 1515 1515 1515 1515 1514 1514 1514 1513 1513 1513 1512 1512 1511 1510 1509 1508 1507 1506 1504 1503 1502 1500 1497 1496 1494 1491 1489 1486 1483 1480 1478 1475 1474 1473 1472 1471 1470 1469 1468 1465
1515 1515 1516 1516 1515 1515 1515 1514 1514 1514 1513 1512 1511 1511 1510 1509 1508 1506 1505 1504 1502 1500 1498 1496 1494 1492 1489 1487 1485 1482 1479 1476 1473 1470 1467 1465 1463 1461 1460 1459 1458 1456 1454
1516 1516 1516 1516 1516 1515 1515 1514 1513 1513 1512 1511 1510 1509 1508 1507 1506 1504 1502 1500 1498 1496 1494 1491 1489 1486 1483 1480 1478 1475 1472 1469 1466 1463 1459 1457 1455 1453 1451 1448 1447 1445 1443
1516 1516 1516 1516 1516 1515 1514 1513 1512 1511 1510 1509 1508 1507 1506 1504 1503 1501 1498 1496 1493 1491 1488 1486 1483 1480 1477 1474 1472 1469 1466 1463 1460 1456 1453 1450 1447 1444 1442 1440 1437 1435 1432
1517 1517 1516 1515 1515 1514 1513 1512 1511 1510 1508 1507 1506 1504 1503 1500 1498 1496 1494 1490 1488 1485 1482 1479 1477 1474 1471 1468 1465 1462 1459 1456 1453 1450 1446 1442 1439 1436 1433 1431 1429 1426 1423
1517 1516 1516 1515 1514 1513 1512 1511 1509 1508 1507 1505 1503 1502 1499 1498 1495 1492 1490 1487 1484 1480 1477 1474 1471 1468 1465 1462 1459 1455 1453 1450 1447 1443 1439 1436 1432 1428 1424 1422 1419 1417 1413
1517 1516 1515 1514 1513 1511 1510 1509 1508 1507 1505 1503 1501 1499 1497 1494 1491 1488 1485 1482 1479 1476 1473 1469 1466 1463 1460 1457 1454 1450 1446 1443 1440 1436 1432 1428 1424 1420 1417 1413 1410 1407 1403
1516 1515 1514 1512 1511 1510 1509 1507 1506 1504 1502 1500 1498 1495 1493 1490 1487 1484 1481 1478 1474 1472 1469 1465 1462 1459 1455 1452 1448 1444 1441 1437 1433 1429 1425 1421 1417 1413 1409 1405 1401 1398 1394
1515 1513 1512 1511 1509 1508 1506 1505 1503 1501 1499 1497 1494 1492 1489 1486 1484 1480 1477 1474 1470 1467 1464 1461 1457 1454 1450 1446 1442 1438 1435 1431 1427 1423 1418 1415 1410 1406 1401 1397 1393 1390 1386
1513 1512 1510 1509 1507 1506 1504 1502 1500 1498 1496 1494 1491 1488 1485 1482 1479 1476 1473 1470 1467 1463 1460 1456 1452 1449 1444 1440 1436 1433 1428 1424 1420 1416 1412 1408 1403 1399 1395 1390 1386 1382 1378
1511 1510 1508 1507 1505 1503 1501 1499 1497 1495 1493 1491 1489 1486 1483 1480 1477 1474 1470 1467 1463 1459 1455 1451 1447 1443 1439 1435 1431 1427 1423 1418 1414 1410 1405 1401 1396 1392 1387 1383 1379 1375 1370
1510 1508 1507 1505 1503 1501 1499 1497 1495 1493 1491 1489 1487 1484 1481 1478 1475 1472 1468 1464 1460 1456 1452 1447 1443 1439 1435 1430 1426 1422 1417 1412 1408 1403 1398 1394 1389 1385 1380 1376 1371 1367 1363
1508 1507 1505 1504 1502 1500 1498 1496 1494 1492 1490 1488 1485 1482 1480 1476 1473 1469 1465 1461 1457 1452 1447 1443 1438 1434 1430 1426 1421 1417 1412 1407 1402 1398 1392 1387 1382 1378 1374 1369 1365 1361 1356
1507 1506 1504 1502 1501 1499 1497 1495 1494 1491 1489 1487 1484 1481 1478 1475 1471 1467 1463 1458 1453 1449 1444 1439 1434 1429 1425 1420 1416 1412 1407 1402 1397 1392 1387 1381 1376 1372 1367 1363 1359 1355 1351
1506 1505 1503 1502 1500 1499 1497 1495 1493 1491 1489 1486 1483 1480 1477 1473 1469 1465 1461 1456 1451 1445 1440 1435 1430 1425 1420 1416 1411 1406 1401 1396 1391 1386 1381 1376 1371 1366 1362 1358 1354 1350 1346
1506 1505 1503 1502 1500 1499 1497 1495 1493 1491 1488 1485 1482 1479 1475 1471 1467 1463 1458 1453 1448 1443 1437 1432 1427 1422 1417 1411 1406 1401 1396 1391 1386 1381 1375 1370 1366 1361 1357 1353 1350 1346 1342